Location: Newark
(35.1686°N, 108.2815°E)
Time: 02:12:10
(UTC+00:00)

Hubble Space Telescope - Visible Passes

Search period start: 07 April 2020 00:00
Search period end: 17 April 2020 00:00
Orbit: 536 x 540 km, 28.5° (Epoch: 06 April)

Date Brightness Start Highest point End Pass type
(mag) Time Alt. Az. Time Alt. Az. Time Alt. Az.
07 Apr 2.3 12:56:35 10° SW 12:59:00 24° SSW 12:59:00 24° SSW visible
08 Apr 1.9 12:45:46 10° SW 12:49:11 29° S 12:49:11 29° S visible
09 Apr 1.7 12:35:00 10° WSW 12:38:38 31° S 12:39:18 29° SSE visible
10 Apr 1.8 12:24:15 10° WSW 12:27:56 32° S 12:29:20 25° SE visible
11 Apr 1.8 12:13:32 10° WSW 12:17:13 32° S 12:19:20 20° SE visible
12 Apr 1.8 12:02:50 10° WSW 12:06:30 31° S 12:09:18 15° SE visible
12 Apr 3.4 13:44:09 10° WSW 13:44:38 12° WSW 13:44:38 12° WSW visible
13 Apr 1.9 11:52:09 10° WSW 11:55:47 30° S 11:59:15 11° SE visible
13 Apr 3.3 13:33:41 10° WSW 13:34:35 13° SW 13:34:35 13° SW visible
14 Apr 2.1 11:41:30 10° WSW 11:45:04 29° S 11:48:38 10° SE visible
14 Apr 3.2 13:23:21 10° SW 13:24:32 13° SW 13:24:32 13° SW visible
15 Apr 3.2 13:13:14 10° SW 13:14:30 12° SSW 13:14:30 12° SSW visible
